Radiation Dose at Monitoring Post of Fukushima Daini Nuclear Power Station
Date,Time,MP-1(microSv/h),MP-2(microSv/h),MP-3(microSv/h),MP-4(microSv/h),MP-5(microSv/h),MP-6(microSv/h),MP-7(microSv/h),Wind Direction,Wind Velocity(m/s),Rain
2017/05/01,00:00,0.382,0.233,0.397,0.365,0.331,0.193,0.166,west-southwest,5.3,No
2017/05/01,00:10,0.380,0.233,0.397,0.366,0.331,0.192,0.166,southwest,3.3,No
2017/05/01,00:20,0.381,0.233,0.399,0.367,0.330,0.192,0.167,west-southwest,5.3,No
2017/05/01,00:30,0.381,0.233,0.395,0.366,0.331,0.192,0.167,west-southwest,7.1,No
2017/05/01,00:40,0.380,0.232,0.399,0.369,0.329,0.192,0.166,west-southwest,3.9,No
2017/05/01,00:50,0.381,0.232,0.397,0.366,0.331,0.193,0.167,west-northwest,2.9,No
2017/05/01,01:00,0.380,0.232,0.394,0.368,0.329,0.193,0.166,north-northwest,2.7,No
2017/05/01,01:10,0.381,0.233,0.397,0.367,0.331,0.192,0.166,north,1.6,No
2017/05/01,01:20,0.380,0.232,0.395,0.366,0.331,0.192,0.166,east,1.1,No
2017/05/01,01:30,0.381,0.232,0.398,0.367,0.328,0.193,0.166,east-northeast,1.3,No
2017/05/01,01:40,0.381,0.232,0.398,0.367,0.331,0.192,0.167,west-southwest,1.0,No
2017/05/01,01:50,0.380,0.234,0.396,0.367,0.328,0.194,0.167,west,3.9,No
2017/05/01,02:00,0.381,0.233,0.397,0.367,0.331,0.194,0.166,west-northwest,6.4,No
2017/05/01,02:10,0.380,0.232,0.397,0.365,0.329,0.193,0.166,west-northwest,3.9,No
2017/05/01,02:20,0.378,0.234,0.396,0.366,0.330,0.193,0.167,north-northwest,2.9,No
2017/05/01,02:30,0.381,0.231,0.398,0.365,0.330,0.193,0.166,north,1.1,No
2017/05/01,02:40,0.379,0.231,0.397,0.366,0.329,0.192,0.166,north,1.4,No
2017/05/01,02:50,0.380,0.232,0.397,0.366,0.330,0.192,0.166,north,3.6,No
2017/05/01,03:00,0.379,0.233,0.397,0.366,0.328,0.193,0.165,north,3.5,No
2017/05/01,03:10,0.379,0.232,0.396,0.366,0.332,0.192,0.166,north,2.5,No
2017/05/01,03:20,0.380,0.232,0.398,0.365,0.327,0.192,0.166,north,2.3,No
2017/05/01,03:30,0.379,0.231,0.396,0.367,0.331,0.193,0.166,north,2.2,No
2017/05/01,03:40,0.381,0.232,0.396,0.365,0.329,0.193,0.166,north,2.6,No
2017/05/01,03:50,0.378,0.232,0.397,0.367,0.330,0.193,0.166,north,1.8,No
2017/05/01,04:00,0.382,0.233,0.397,0.367,0.329,0.194,0.165,north-northwest,2.5,No
2017/05/01,04:10,0.381,0.232,0.398,0.365,0.329,0.194,0.165,northwest,2.3,No
2017/05/01,04:20,0.379,0.232,0.396,0.367,0.331,0.193,0.166,north-northwest,4.2,No
2017/05/01,04:30,0.381,0.234,0.398,0.363,0.328,0.192,0.166,north-northwest,2.1,No
2017/05/01,04:40,0.379,0.233,0.395,0.367,0.330,0.192,0.166,north,2.3,No
2017/05/01,04:50,0.381,0.233,0.398,0.365,0.329,0.193,0.166,north,2.5,No
2017/05/01,05:00,0.380,0.231,0.395,0.364,0.331,0.193,0.166,north-northwest,2.1,No
2017/05/01,05:10,0.379,0.231,0.396,0.366,0.328,0.192,0.166,west-northwest,2.7,No
2017/05/01,05:20,0.380,0.232,0.397,0.364,0.330,0.191,0.167,west,4.9,No
2017/05/01,05:30,0.378,0.232,0.395,0.368,0.329,0.193,0.165,west-southwest,7.2,No
2017/05/01,05:40,0.381,0.232,0.398,0.366,0.329,0.192,0.166,west,7.6,No
2017/05/01,05:50,0.378,0.231,0.395,0.367,0.329,0.192,0.166,west-northwest,6.7,No
2017/05/01,06:00,0.379,0.233,0.397,0.364,0.330,0.193,0.165,west,6.7,No
2017/05/01,06:10,0.378,0.232,0.395,0.365,0.327,0.191,0.166,west,9.2,No
2017/05/01,06:20,0.381,0.232,0.397,0.364,0.329,0.192,0.165,west,9.4,No
2017/05/01,06:30,0.378,0.231,0.393,0.366,0.326,0.192,0.164,west-southwest,7.1,No
2017/05/01,06:40,0.381,0.231,0.396,0.363,0.330,0.193,0.166,west,3.1,No
2017/05/01,06:50,0.376,0.230,0.393,0.366,0.329,0.193,0.164,west-southwest,1.9,No
2017/05/01,07:00,0.379,0.232,0.397,0.362,0.329,0.192,0.166,west-northwest,4.1,No
2017/05/01,07:10,0.379,0.231,0.396,0.366,0.330,0.194,0.166,west-northwest,8.5,No
2017/05/01,07:20,0.377,0.230,0.392,0.364,0.325,0.192,0.164,northwest,6.8,No
2017/05/01,07:30,0.380,0.231,0.396,0.363,0.329,0.192,0.165,northwest,4.8,No
2017/05/01,07:40,0.377,0.230,0.395,0.366,0.327,0.191,0.165,north-northwest,4.5,No
2017/05/01,07:50,0.382,0.232,0.397,0.364,0.329,0.192,0.164,west-northwest,7.5,No
2017/05/01,08:00,0.377,0.232,0.397,0.364,0.331,0.192,0.166,west-northwest,8.7,No
2017/05/01,08:10,0.378,0.231,0.395,0.366,0.327,0.191,0.164,west-northwest,5.9,No
2017/05/01,08:20,0.380,0.233,0.397,0.362,0.330,0.192,0.163,west,6.6,No
2017/05/01,08:30,0.378,0.231,0.393,0.364,0.329,0.193,0.165,west,9.2,No
2017/05/01,08:40,0.384,0.231,0.396,0.367,0.326,0.191,0.167,west-northwest,5.6,No
2017/05/01,08:50,0.379,0.233,0.397,0.364,0.331,0.193,0.165,north-northwest,3.6,No
2017/05/01,09:00,0.378,0.231,0.394,0.363,0.328,0.192,0.165,-,CALM,No
2017/05/01,09:10,0.380,0.232,0.399,0.367,0.328,0.191,0.165,west-northwest,5.0,No
2017/05/01,09:20,0.378,0.232,0.395,0.363,0.332,0.193,0.165,northwest,2.9,No
2017/05/01,09:30,0.380,0.231,0.397,0.367,0.328,0.192,0.165,north-northwest,1.7,No
2017/05/01,09:40,0.380,0.232,0.397,0.365,0.331,0.191,0.167,west-northwest,1.6,No
2017/05/01,09:50,0.379,0.231,0.394,0.363,0.331,0.193,0.166,north,2.4,No
2017/05/01,10:00,0.382,0.233,0.399,0.367,0.330,0.193,0.166,north,2.4,No
2017/05/01,10:10,0.380,0.230,0.396,0.365,0.332,0.193,0.166,north,2.8,No
2017/05/01,10:20,0.380,0.232,0.397,0.368,0.328,0.192,0.164,north-northwest,2.8,No
2017/05/01,10:30,0.380,0.231,0.396,0.366,0.329,0.192,0.166,north,6.5,No
2017/05/01,10:40,0.379,0.232,0.397,0.365,0.329,0.193,0.165,north,7.6,No
2017/05/01,10:50,0.382,0.232,0.396,0.368,0.330,0.192,0.166,north,9.0,No
2017/05/01,11:00,0.379,0.231,0.397,0.365,0.331,0.194,0.165,north,10.3,No
2017/05/01,11:10,0.383,0.232,0.398,0.368,0.330,0.193,0.167,north,7.4,No
2017/05/01,11:20,0.380,0.233,0.397,0.365,0.331,0.193,0.165,north-northeast,6.8,No
2017/05/01,11:30,0.381,0.232,0.397,0.367,0.332,0.193,0.166,north-northeast,6.4,No
2017/05/01,11:40,0.382,0.231,0.396,0.365,0.332,0.192,0.167,northeast,5.6,No
2017/05/01,11:50,0.382,0.233,0.398,0.368,0.331,0.192,0.167,northeast,5.5,No
2017/05/01,12:00,0.382,0.231,0.397,0.365,0.330,0.193,0.167,north-northeast,4.7,Yes
2017/05/01,12:10,0.381,0.236,0.399,0.367,0.333,0.194,0.168,north-northeast,2.5,Yes
2017/05/01,12:20,0.386,0.236,0.401,0.369,0.332,0.196,0.171,north-northeast,3.6,Yes
2017/05/01,12:30,0.384,0.237,0.401,0.371,0.336,0.197,0.170,north,3.1,Yes
2017/05/01,12:40,0.390,0.241,0.406,0.374,0.334,0.198,0.172,north-northwest,3.6,Yes
2017/05/01,12:50,0.392,0.244,0.407,0.376,0.339,0.203,0.175,north-northwest,2.6,Yes
2017/05/01,13:00,0.395,0.247,0.409,0.379,0.339,0.205,0.178,west-northwest,1.0,Yes
2017/05/01,13:10,0.397,0.250,0.410,0.377,0.340,0.208,0.180,west-northwest,5.3,Yes
2017/05/01,13:20,0.395,0.250,0.407,0.377,0.342,0.208,0.179,west-northwest,10.4,Yes
2017/05/01,13:30,0.398,0.250,0.408,0.378,0.340,0.208,0.180,west-northwest,12.3,Yes
2017/05/01,13:40,0.397,0.251,0.409,0.378,0.341,0.211,0.181,northwest,9.2,Yes
2017/05/01,13:50,0.397,0.249,0.407,0.379,0.341,0.209,0.181,northwest,8.6,Yes
2017/05/01,14:00,0.398,0.250,0.408,0.377,0.341,0.209,0.182,northwest,6.7,Yes
2017/05/01,14:10,0.396,0.251,0.406,0.376,0.341,0.209,0.182,west-northwest,6.0,Yes
2017/05/01,14:20,0.396,0.249,0.405,0.376,0.340,0.209,0.181,west-northwest,5.8,Yes
2017/05/01,14:30,0.393,0.249,0.405,0.374,0.343,0.209,0.181,west-northwest,5.3,Yes
2017/05/01,14:40,0.391,0.248,0.399,0.374,0.339,0.207,0.180,west-northwest,5.0,No
2017/05/01,14:50,0.390,0.243,0.401,0.370,0.337,0.204,0.177,northwest,3.9,No
2017/05/01,15:00,0.386,0.241,0.397,0.369,0.337,0.202,0.173,northwest,2.3,No
2017/05/01,15:10,0.386,0.238,0.395,0.366,0.333,0.199,0.172,northwest,2.8,No
2017/05/01,15:20,0.380,0.236,0.393,0.363,0.332,0.198,0.170,west-northwest,3.7,No
2017/05/01,15:30,0.381,0.234,0.391,0.362,0.329,0.197,0.169,north-northwest,3.3,No
2017/05/01,15:40,0.376,0.232,0.390,0.360,0.330,0.194,0.167,north-northwest,2.2,No
2017/05/01,15:50,0.379,0.231,0.388,0.360,0.326,0.194,0.166,north,5.0,No
2017/05/01,16:00,0.375,0.231,0.389,0.356,0.327,0.193,0.163,north,5.3,No
2017/05/01,16:10,0.375,0.230,0.389,0.359,0.326,0.192,0.164,north-northwest,4.2,Yes
2017/05/01,16:20,0.375,0.229,0.386,0.356,0.327,0.190,0.163,northwest,3.6,Yes
2017/05/01,16:30,0.374,0.228,0.387,0.357,0.327,0.191,0.164,northwest,5.4,No
2017/05/01,16:40,0.374,0.227,0.385,0.356,0.324,0.190,0.163,west-northwest,4.7,No
2017/05/01,16:50,0.372,0.228,0.387,0.356,0.326,0.189,0.162,northwest,3.9,No
2017/05/01,17:00,0.375,0.226,0.385,0.357,0.323,0.190,0.162,northwest,2.9,No
2017/05/01,17:10,0.371,0.227,0.386,0.354,0.324,0.189,0.162,west-northwest,3.2,No
2017/05/01,17:20,0.374,0.226,0.385,0.356,0.324,0.190,0.161,west-northwest,4.7,No
2017/05/01,17:30,0.372,0.226,0.384,0.355,0.325,0.188,0.162,northwest,4.6,No
2017/05/01,17:40,0.372,0.225,0.384,0.357,0.321,0.189,0.161,northwest,5.8,No
2017/05/01,17:50,0.371,0.227,0.382,0.354,0.325,0.188,0.162,west-northwest,5.0,No
2017/05/01,18:00,0.372,0.225,0.386,0.356,0.322,0.188,0.161,east-northeast,2.5,No
2017/05/01,18:10,0.374,0.227,0.384,0.356,0.325,0.188,0.160,east-northeast,1.8,No
2017/05/01,18:20,0.371,0.226,0.384,0.356,0.324,0.188,0.161,east,1.0,No
2017/05/01,18:30,0.374,0.225,0.385,0.357,0.324,0.188,0.161,north-northwest,0.9,No
2017/05/01,18:40,0.372,0.227,0.386,0.355,0.326,0.189,0.162,northeast,0.8,No
2017/05/01,18:50,0.371,0.227,0.385,0.356,0.324,0.188,0.161,northeast,1.4,No
2017/05/01,19:00,0.374,0.226,0.385,0.357,0.325,0.188,0.161,north,1.3,No
2017/05/01,19:10,0.372,0.226,0.385,0.356,0.324,0.188,0.161,west-southwest,0.7,No
2017/05/01,19:20,0.372,0.227,0.386,0.357,0.324,0.188,0.161,northwest,3.7,No
2017/05/01,19:30,0.372,0.224,0.386,0.354,0.327,0.188,0.161,west-northwest,7.2,No
2017/05/01,19:40,0.371,0.227,0.385,0.357,0.325,0.188,0.161,northwest,6.8,No
2017/05/01,19:50,0.374,0.225,0.386,0.357,0.323,0.189,0.161,northwest,4.5,No
2017/05/01,20:00,0.371,0.226,0.385,0.355,0.326,0.188,0.161,northwest,3.8,No
2017/05/01,20:10,0.373,0.226,0.384,0.354,0.323,0.188,0.160,northwest,5.5,No
2017/05/01,20:20,0.374,0.227,0.386,0.356,0.324,0.188,0.162,north-northwest,4.5,No
2017/05/01,20:30,0.372,0.225,0.386,0.355,0.324,0.188,0.161,northwest,5.8,No
2017/05/01,20:40,0.374,0.226,0.384,0.356,0.323,0.187,0.161,northwest,7.6,No
2017/05/01,20:50,0.371,0.227,0.385,0.358,0.325,0.188,0.161,west-northwest,9.8,No
2017/05/01,21:00,0.372,0.226,0.386,0.354,0.326,0.188,0.160,northwest,10.4,No
2017/05/01,21:10,0.375,0.225,0.387,0.356,0.325,0.188,0.161,northwest,8.7,No
2017/05/01,21:20,0.372,0.225,0.386,0.356,0.326,0.187,0.161,northwest,8.8,No
2017/05/01,21:30,0.373,0.226,0.384,0.356,0.324,0.189,0.160,northwest,8.8,No
2017/05/01,21:40,0.375,0.226,0.386,0.359,0.325,0.188,0.161,north-northwest,10.7,No
2017/05/01,21:50,0.374,0.225,0.387,0.357,0.326,0.188,0.160,north-northwest,8.9,No
2017/05/01,22:00,0.375,0.225,0.386,0.356,0.324,0.188,0.161,northwest,7.8,No
2017/05/01,22:10,0.373,0.226,0.387,0.358,0.323,0.188,0.162,northwest,6.5,No
2017/05/01,22:20,0.373,0.225,0.385,0.356,0.325,0.188,0.162,northwest,6.2,No
2017/05/01,22:30,0.376,0.226,0.386,0.356,0.323,0.189,0.162,northwest,7.3,No
2017/05/01,22:40,0.374,0.228,0.387,0.357,0.325,0.189,0.162,northwest,9.2,No
2017/05/01,22:50,0.374,0.227,0.388,0.354,0.325,0.189,0.161,northwest,9.6,No
2017/05/01,23:00,0.375,0.226,0.385,0.356,0.324,0.188,0.161,west-northwest,10.1,No
2017/05/01,23:10,0.374,0.227,0.387,0.358,0.325,0.189,0.161,northwest,8.7,No
2017/05/01,23:20,0.375,0.227,0.386,0.356,0.326,0.188,0.162,northwest,8.0,No
2017/05/01,23:30,0.375,0.226,0.387,0.356,0.324,0.188,0.162,northwest,7.1,No
2017/05/01,23:40,0.374,0.226,0.386,0.357,0.327,0.188,0.160,northwest,6.7,No
2017/05/01,23:50,0.376,0.228,0.387,0.356,0.325,0.189,0.161,northwest,6.7,No
